sat.trackr.live / text

‹ back to catalog

STARLINK-35425

NORAD 65874 · 2025-223W

PAYLOAD ACTIVE UNKNOWN

§ Identity

Operator
Country
US
Launch date
2025-10-03
Launch site
AFWTR
Launch vehicle
Mass (kg)
RCS (m²)

Purposes: comms

External: N2YO · Heavens-Above · Gunter

§ Orbital elements

Epoch: 2026-05-25T04:00:03.998880Z

Period
93.90 min
Inclination
53.1600°
Eccentricity
0.0001002
Mean motion
15.33542103 rev/d
Perigee alt
464.6 km
Apogee alt
465.9 km
Semi-major
6,843.4 km
B*
1.8250e-4
RAAN
298.9832°
Arg perigee
89.1810°
Mean anomaly
287.2466°
Rev number
580

§ Raw data

STARLINK-354251 65874U 25223W   26145.16671295  .00005633  00000+0  18250-3 0  99942 65874  53.1600 298.9832 0001002  89.1810 287.2466 15.33542103  5803

JSON: /api/v1/satellites/65874 · /tle

For live sub-satellite position, see the globe view (requires WebGL).

§ Visibility from observer

Set your observer location to see the next 7 days of passes ≥ 10°. The values pass through the URL so the page stays shareable.

No JS? Fill the form by hand. The geolocation button needs JavaScript.